Snowfall_Accumulation
0.0 0.0 0.0 0.0 0.0 0.1 0.2 0.7 2.5 3.7 0.1 0.0 0.0 0.0 0.0 0.0 0.0 0.0 0.0 0.0 0.0 0.0 0.0 0.0 0.0 0.0 0.0 0.0 0.0 0.0 0.0 0.0 0.0 0.0 0.0 0.0 0.0 0.0
0.0 0.0 0.0 0.0 0.0 0.1 0.1 0.0 0.2 2.0 3.5 0.0 0.0 0.0 0.0 0.0 0.0 0.0 0.0 0.0 0.0 0.0 0.0 0.0 0.0 0.0 0.0 0.0 0.0 0.0 0.0 0.0 0.0 0.0 0.0 0.0 0.0 0.0
0.0 0.0 0.0 0.0 0.0 0.1 0.1 0.1 0.1 0.4 3.7 0.0 0.0 0.0 0.0 0.0 0.0 0.0 0.0 0.0 0.0 0.0 0.0 0.0 0.0 0.0 0.0 0.0 0.0 0.0 0.0 0.0 0.0 0.0 0.0 0.0 0.0 0.0
0.0 0.0 0.0 0.0 0.0 0.1 0.1 0.1 0.1 0.1 1.7 1.8 0.4 0.5 0.3 0.0 0.0 0.0 0.0 0.0 0.0 0.0 0.0 0.0 0.0 0.0 0.0 0.0 0.0 0.0 0.0 0.0 0.0 0.0 0.0 0.0 0.0 0.0
0.0 0.0 0.0 0.0 0.1 0.1 0.1 0.4 0.3 0.2 1.1 2.0 1.0 0.1 0.3 0.0 1.3 0.1 0.0 0.0 0.0 0.0 0.0 0.0 0.0 0.0 0.0 0.0 0.0 0.0 0.0 0.0 0.0 0.0 0.0 0.0 0.0 0.0
0.0 0.0 0.0 0.1 0.1 0.6 1.1 2.4 1.9 1.8 1.2 1.0 0.7 0.5 0.9 0.6 0.4 0.7 0.4 0.2 0.5 0.0 0.0 0.0 0.0 0.0 0.0 0.0 0.0 0.0 0.0 0.0 0.0 0.0 0.0 0.0 0.0 0.0
0.2 0.3 0.1 0.7 0.5 0.7 1.5 1.6 1.7 1.7 2.0 3.8 2.5 1.3 0.5 0.3 0.3 0.2 0.9 0.6 1.4 0.3 0.5 0.9 0.3 0.3 0.0 0.0 0.0 0.0 0.0 0.0 0.0 0.0 0.0 0.0 0.0 0.0
0.5 0.5 1.2 1.7 1.2 0.6 0.2 0.2 0.4 2.8 4.5 3.8 3.3 1.3 0.2 0.1 0.2 0.4 2.3 4.9 8.1 0.0 4.6 2.5 0.3 1.0 0.1 0.0 0.0 0.0 0.0 0.0 0.0 0.0 0.0 0.0 0.0 0.0
3.4 3.7 2.3 1.5 2.0 1.3 0.5 0.2 0.6 0.1 0.1 1.1 1.4 0.3 0.3 0.2 1.5 2.5 2.7 5.1 6.8 3.0 5.7 5.1 1.0 1.9 0.0 0.0 0.0 0.0 0.0 0.0 0.0 0.0 0.0 0.0 0.0 0.0
3.5 2.7 2.0 1.7 0.9 0.5 0.7 0.7 0.3 0.0 0.0 0.1 0.1 0.3 0.7 0.3 1.1 2.0 2.1 2.5 1.3 1.4 5.6 13.9 2.9 2.0 0.3 0.0 0.0 0.1 0.0 0.0 0.0 0.0 0.0 0.0 0.0 0.0
0.5 0.0 0.0 0.1 0.0 0.1 0.8 0.9 0.3 0.1 0.0 0.0 0.1 0.0 0.0 0.0 0.0 0.9 4.0 6.8 6.7 4.3 5.6 10.2 4.9 6.2 0.8 0.4 0.1 0.0 0.0 0.0 0.0 0.0 0.0 0.0 0.0 0.0
0.9 0.0 0.0 0.1 0.1 0.2 0.7 0.7 0.9 0.0 0.6 0.2 0.0 0.0 0.0 0.0 0.0 0.0 2.0 12.9 11.9 9.7 2.8 11.7 7.4 9.4 12.1 0.2 0.2 0.0 0.2 0.1 0.0 0.0 0.0 0.0 0.0 0.2
1.0 0.6 0.0 0.1 0.1 0.1 0.0 0.8 0.7 0.2 0.2 0.2 0.3 0.1 0.0 0.0 0.7 0.5 0.2 4.8 15.1 13.9 2.0 13.4 17.8 10.0 17.9 8.5 0.4 0.2 0.3 0.2 0.2 0.1 0.0 0.0 0.4 0.7
1.1 0.2 0.1 0.2 0.0 0.0 0.1 0.1 0.3 0.2 0.7 1.0 1.3 1.0 0.8 0.3 0.1 0.4 0.4 0.2 0.6 6.5 4.2 6.7 28.7 17.9 28.0 20.2 2.8 1.1 0.5 0.1 0.5 0.8 0.4 0.8 0.8 0.8
0.2 0.2 0.2 0.1 0.1 0.1 0.0 0.1 0.0 0.5 2.4 2.0 1.3 0.7 0.3 0.6 0.9 1.4 1.1 1.3 1.2 1.5 2.7 4.6 12.5 17.0 26.1 30.2 12.7 2.1 2.8 0.5 0.1 1.7 2.3 2.7 2.6 2.7
0.2 0.6 0.3 0.7 0.2 0.1 0.2 0.1 0.0 0.2 1.9 2.8 2.2 1.6 1.7 1.1 1.5 1.0 2.5 2.8 6.3 5.8 2.8 3.9 6.6 15.4 27.0 15.1 17.6 8.4 2.1 7.2 1.1 1.3 3.0 2.1 1.5 1.8
3.3 5.7 4.2 3.9 3.2 2.9 2.4 2.1 1.9 1.3 2.0 1.4 2.9 3.9 3.1 3.0 2.4 2.0 3.1 4.5 9.8 6.4 7.2 8.8 8.0 10.4 14.1 19.7 16.0 11.0 6.1 5.9 4.4 5.1 5.2 4.3 0.7 1.4
9.9 12.1 10.9 8.6 7.1 7.0 4.6 4.2 4.0 3.1 2.9 3.7 4.5 4.5 7.5 6.0 5.7 6.3 5.4 7.4 11.9 10.2 11.8 12.0 11.7 16.2 16.9 19.2 13.4 14.6 11.2 9.0 7.5 7.5 6.0 10.8 6.5 3.1
12.1 11.5 12.3 11.1 11.1 10.3 8.6 6.9 6.7 3.8 4.1 6.8 9.7 9.6 10.9 10.7 9.5 8.3 8.0 9.4 12.2 12.5 14.7 13.9 18.3 23.8 35.1 27.8 24.9 12.6 26.0 15.4 13.1 12.5 7.2 7.7 8.8 4.8
9.0 10.4 11.5 11.8 11.6 11.6 11.5 10.2 8.6 8.0 9.1 10.0 11.9 12.7 13.5 16.4 13.5 12.1 9.8 14.1 15.6 12.5 16.3 17.3 18.2 23.9 45.0 44.0 40.2 27.6 16.0 18.2 23.6 19.9 14.1 9.7 8.2 2.6
10.1 10.8 10.5 11.3 11.8 10.0 9.5 11.3 11.2 10.9 11.4 12.9 10.0 12.1 12.1 18.1 14.7 10.3 11.4 8.8 12.9 15.6 21.0 17.3 17.4 12.6 22.9 30.8 38.9 30.1 25.2 10.0 5.8 22.3 22.0 23.9 14.0 9.7
11.1 10.5 8.7 8.6 9.2 9.2 9.6 9.5 11.4 11.0 10.9 9.1 9.2 10.5 11.3 14.5 16.4 13.4 11.4 15.9 13.1 13.5 18.3 18.2 17.6 19.0 28.4 37.3 35.4 25.5 25.3 23.3 13.3 4.0 3.4 8.3 26.6 34.1
12.5 11.2 8.6 8.1 8.1 9.3 10.3 10.1 9.0 8.3 8.4 10.3 10.3 9.9 12.1 15.7 9.5 11.3 13.3 12.9 13.3 17.0 17.7 22.5 18.4 17.1 23.1 29.1 26.9 27.5 22.9 22.6 26.0 15.7 22.7 5.4 3.1 3.1